Weather in Yesiplevo

Russia / Vladimir Oblast     56°18′08″N   39°32′32″E
temp.,
°C
wind,
m/s
gust,
m/s
humid.,
%
clouds,
%
prec.,
mm/h
press.,
hPa
HPBL,
m
3 august, tue
tue300:00+18s41392100 1.5 1003268
03:00+19sw31095100 3.0 1003485
06:00+18wsw3895100 0.0 1005599
09:00+20wsw3572100 0.1 1007864
12:00+24wsw355236 0.0 10081660
15:00+23w4654100 0.0 10081132
18:00+21w366099 0.0 1009713
21:00+18sw286634 0.0 1010238
4 august, wed
wed400:00+14w27770 0.0 1012131
03:00+12w26780 0.0 1013105
06:00+13w247999 0.0 1014110
09:00+19wnw23582 0.0 1014650
12:00+22wnw354192 0.0 10152476
15:00+21w244420 0.0 10141438
18:00+19nw3754100 0.0 1015352
21:00+17nnw2260100 0.0 101635
5 august, thu
thu500:00+14nw1174100 0.0 101711
03:00+15wsw116699 0.0 101811
06:00+15n007275 0.0 101815
09:00+19s0157100 0.0 1018362
12:00+22sse2346100 0.0 10181251
15:00+22ssw115496 0.0 1017214
18:00+15w3592100 2.4 1017122
21:00+14e3796100 3.8 1017234
6 august, fri
fri600:00+14se2698100 1.4 1016207
03:00+14ese3698100 3.9 1015249
06:00+13ese2798100 5.8 1014261
09:00+15se3697100 6.8 1014327
12:00+15sse2494100 0.1 1014281
15:00+15se2498100 1.4 1014265
18:00+15ese2499100 1.6 1013241
21:00+15se2399100 2.0 1014162
7 august, sat
sat700:00+15ese2599100 1.5 1014163
03:00+15ene37100100 4.7 1012214
06:00+15ene2798100 0.1 1014264
09:00+18e4688100 0.1 1014474
12:00+20e357977 0.0 1014473
15:00+19e3786100 0.4 1014306
18:00+20ene4986100 0.3 1014385
21:00+17ene51390100 0.3 1014410